Home > Weather > Albuquerque > Past weeks

Flag for U.S.A. Weather for the Past 2 Weeks in Albuquerque, New Mexico, U.S.A.

Now
26 °F

Clear.


Feels Like: 16 °F
Forecast: 19 / 48 °F
Wind: 10 mph from Northeast

Location: Albuquerque International Airport

Current Time: Feb 6, 2016 at 5:55:25 AM

Latest Report: Feb 6, 2016 at 4:52 AM


Visibility: 10 mi

Pressure: 30.50 "Hg (25.19 "Hg at 1510m altitude)

Humidity: 55%

Dew point: 12 °F

Location of AlbuquerqueLocation

Historic Weather in Albuquerque — Graph

°F

Albuquerque Temperature Yesterday

Maximum temperature yesterday: 43 °F (at 3:52 PM)
Minimum temperature yesterday: 24 °F (at 4:52 AM)
Average temperature yesterday: 32 °F

High & Low Weather Summary for the Past Weeks

 TemperatureHumidityPressure
High65 °F (Jan 30, 2:52 PM)92% (Feb 1, 6:57 AM)30.54 "Hg (Feb 1, 6:57 AM)
Low14 °F (Feb 3, 6:52 AM)13% (Jan 31, 3:52 PM)29.39 "Hg (Feb 1, 5:52 AM)
Average37 °F44%30.09 "Hg
* Reported Jan 22 4:52 AM — Feb 6 4:52 AM, Albuquerque, Weather by CustomWeather, © 2016

Note: Actual official high and low records may vary slightly from our data, if they occured in-between our weather recording intervals... More about our weather records

Advertising

Albuquerque Weather History for the Previous 24 Hours

 ConditionsComfort  
Time TempWeatherWind HumidityBarometerVisibility
4:52 AM
Sat, Feb 6
26 °FClear.10 mph55%30.50 "Hg10 mi
3:52 AM26 °FClear.10 mph55%30.50 "Hg10 mi
2:52 AM26 °FClear.8 mph55%30.49 "Hg10 mi
1:52 AM28 °FClear.7 mph51%30.50 "Hg10 mi
12:52 AM29 °FClear.No wind51%30.50 "Hg10 mi
11:52 PM
Fri, Feb 5
30 °FClear.13 mph47%30.52 "Hg10 mi
10:52 PM31 °FClear.12 mph45%30.51 "Hg10 mi
9:52 PM32 °FClear.8 mph45%30.51 "Hg10 mi
8:52 PM34 °FClear.16 mph40%30.50 "Hg10 mi
7:52 PM35 °FClear.9 mph35%30.47 "Hg10 mi
6:52 PM37 °FClear.10 mph27%30.45 "Hg10 mi
5:52 PM38 °FClear.12 mph27%30.43 "Hg10 mi
4:52 PM41 °FSunny.12 mph19%30.40 "Hg10 mi
3:52 PM43 °FSunny.14 mph21%30.39 "Hg10 mi
2:52 PM42 °FSunny.15 mph21%30.39 "Hg10 mi
1:52 PM40 °FSunny.12 mph27%30.39 "Hg10 mi
12:52 PM38 °FSunny.13 mph33%30.42 "Hg10 mi
11:52 AM35 °FSunny.15 mph35%30.45 "Hg10 mi
10:52 AM32 °FPassing clouds.13 mph43%30.47 "Hg10 mi
9:52 AM29 °FPassing clouds.10 mph51%30.47 "Hg10 mi
8:52 AM26 °FPassing clouds.14 mph57%30.46 "Hg10 mi
7:52 AM24 °FPassing clouds.17 mph60%30.46 "Hg10 mi
6:52 AM24 °FPassing clouds.20 mph60%30.42 "Hg10 mi
5:52 AM24 °FClear.23 mph62%30.38 "Hg10 mi
Weather by CustomWeather, © 2016

See weather overviewHow to use our weather pages